Find WHDW 14-02

NORAD ID: 66916 Int'l Des: 2025-285 Owner: ZXW Country: CN Constellation: xingwang operational
LEOCIRCULAR

当前视图

正在加载3D地球...

About WHDW 14-02

WHDW 14-02 (NORAD 66916) is a xingwang constellation satellite launched Dec 6, 2025 by ZXW of CN. It operates in LEO, CIRCULAR orbit with a mass of 700.00 kg.

关于 WHDW 14-02

正在加载描述...

即将过境

Passes for default location (London). Set your location on the main map for personalized predictions.

高度历史

Loading altitude history...

两行轨道根数

1 66916U 25285B 26194.85644707 -.00000105 00000-0 40209-4 0 9999
2 66916 50.0070 50.5196 0001007 28.0217 332.0710 13.29323058 29605
Epoch: Jul 13, 2026 • Age: 8 hours

当前状态

高度 1152.6 km
远地点 / 近地点 N/A
速度 7.28 km/s
星下点 39.34°N, 171.8°W
发射日期 Dec 6, 2025
运行时间 0.6 years
类型 other

技术详情

分类 Payload
质量 700.00 kg
干质量 700.00 kg
总质量 700.00 kg
长度 3.00 m
直径 1.00 m
跨度 10.00 m
形状 Box + 2 Pan
制造商 CAST
平台类型 Xingwang C
阶段状态 In Orbit
所有者/国家 ZXW/CN

Most Searched